This is the latest recevied weather packets stored in our database for station/object KN6CW-3. If no packets are shown the sender has not sent any weather packets the latest 10 day(s).
| Time | Temp. | Humidity | Pressure | Rain* | Wind** | Luminosity | Snow |
|---|---|---|---|---|---|---|---|
| 1777820786 | 7.78° C | 47% | 1013.9 hPa | 0 mm | - | 288 W/m² | - |
| 1777820486 | 7.78° C | 49% | 1013.7 hPa | 0 mm | - | 1041 W/m² | - |
| 1777820185 | 7.22° C | 50% | 1013.8 hPa | 0 mm | - | 1013 W/m² | - |
| 1777819885 | 6.11° C | 54% | 1013.9 hPa | 0 mm | - | 1013 W/m² | - |
| 1777819585 | 6.11° C | 53% | 1014 hPa | 0 mm | - | 244 W/m² | - |
| 1777819285 | 6.11° C | 57% | 1014 hPa | 0 mm | - | 207 W/m² | - |
| 1777818984 | 6.67° C | 55% | 1013.9 hPa | 0 mm | - | 246 W/m² | - |
| 1777818684 | 6.67° C | 55% | 1013.9 hPa | 0 mm | - | 1002 W/m² | - |
| 1777818384 | 6.67° C | 56% | 1013.8 hPa | 0 mm | - | 967 W/m² | - |
| 1777818083 | 5.56° C | 60% | 1013.9 hPa | 0 mm | - | 891 W/m² | - |
| 1777817783 | 5° C | 64% | 1014 hPa | 0 mm | - | 875 W/m² | - |
| 1777817483 | 5° C | 63% | 1014 hPa | 0 mm | - | 169 W/m² | - |
| 1777817183 | 5° C | 66% | 1014.1 hPa | 0 mm | - | 244 W/m² | - |
| 1777816882 | 5° C | 65% | 1014 hPa | 0 mm | - | 186 W/m² | - |
| 1777816582 | 5° C | 64% | 1014.1 hPa | 0 mm | - | 181 W/m² | - |
| 1777816282 | 5° C | 65% | 1014.1 hPa | 0 mm | - | 199 W/m² | - |
| 1777815981 | 5° C | 65% | 1014.1 hPa | 0 mm | - | 798 W/m² | - |
| 1777815681 | 5° C | 66% | 1014.2 hPa | 0 mm | - | 462 W/m² | - |
| 1777815381 | 4.44° C | 67% | 1014.3 hPa | 0 mm | - | 737 W/m² | - |
| 1777815081 | 4.44° C | 68% | 1014.1 hPa | 0 mm | - | 812 W/m² | - |
| 1777814780 | 4.44° C | 69% | 1014.1 hPa | 0 mm | - | 278 W/m² | - |
| 1777814480 | 4.44° C | 69% | 1014.2 hPa | 0 mm | - | 211 W/m² | - |
| 1777814180 | 4.44° C | 69% | 1014.1 hPa | 0 mm | - | 202 W/m² | - |
| 1777813879 | 4.44° C | 70% | 1014.1 hPa | 0 mm | - | 689 W/m² | - |
| 1777813579 | 4.44° C | 71% | 1014.2 hPa | 0 mm | - | 710 W/m² | - |
* Rain latest hour (hover to see other rain measurements)
** Current wind speed in m/s (hover to see current wind gust speed)